| time (UTC) | temp F | wind direction | speed knots | gust knots | rain 1hr in | rain 24hr in | rain mn in | humidity % | barometer mb |
| 20260906003052 | 57 | 294 | 0.9 | 6.1 | 0.00 | 0.08 | 0.00 | 87 | 1011.7 |
| 20260906001549 | 56 | 359 | 0.9 | 6.1 | 0.00 | 0.08 | 0.00 | 90 | 1011.5 |
| 20260906000055 | 55 | 276 | 0.9 | 7.0 | 0.00 | 0.08 | 0.00 | 92 | 1011.4 |
| 20260905234550 | 53 | 244 | 0.0 | 2.6 | 0.00 | 0.08 | 0.00 | 93 | 1011.2 |
| 20260905233044 | 51 | 217 | 0.0 | 1.7 | 0.00 | 0.08 | 0.00 | 91 | 1011.1 |
| 20260905231542 | 52 | 230 | 0.0 | 0.9 | 0.00 | 0.08 | 0.00 | 91 | 1011.0 |
| 20260905230041 | 52 | 230 | 0.0 | 1.7 | 0.00 | 0.08 | 0.00 | 91 | 1010.7 |
| 20260905224538 | 52 | 230 | 0.0 | 1.7 | 0.00 | 0.08 | 0.00 | 90 | 1010.6 |
| 20260905223035 | 53 | 243 | 0.0 | 0.9 | 0.00 | 0.08 | 0.00 | 89 | 1010.4 |
| 20260905221532 | 54 | 247 | 0.0 | 0.9 | 0.00 | 0.08 | 0.00 | 88 | 1010.3 |
| 20260905220026 | 56 | 263 | 0.9 | 4.3 | 0.00 | 0.08 | 0.00 | 86 | 1010.2 |
| 20260905214524 | 56 | 250 | 0.9 | 4.3 | 0.00 | 0.13 | 0.08 | 88 | 1009.9 |
| 20260905213023 | 56 | 260 | 0.0 | 4.3 | 0.00 | 0.13 | 0.08 | 86 | 1009.8 |
| 20260905211542 | 56 | 253 | 0.0 | 3.5 | 0.00 | 0.13 | 0.08 | 84 | 1009.5 |
| 20260905210020 | 57 | 355 | 0.0 | 4.3 | 0.00 | 0.13 | 0.08 | 84 | 1009.3 |
| 20260905204519 | 57 | 48 | 0.0 | 2.6 | 0.00 | 0.16 | 0.08 | 84 | 1009.0 |
| 20260905203018 | 57 | 346 | 0.9 | 5.2 | 0.00 | 0.16 | 0.08 | 84 | 1008.8 |
| 20260905201523 | 57 | 302 | 0.9 | 6.1 | 0.00 | 0.16 | 0.08 | 84 | 1008.7 |
| 20260905200015 | 57 | 335 | 1.7 | 5.2 | 0.00 | 0.16 | 0.08 | 83 | 1008.4 |
| 20260905194513 | 57 | 257 | 0.9 | 7.0 | 0.00 | 0.17 | 0.08 | 83 | 1008.1 |
| 20260905193012 | 58 | 216 | 0.9 | 7.0 | 0.00 | 0.17 | 0.08 | 82 | 1007.7 |
| 20260905191509 | 58 | 214 | 0.9 | 7.0 | 0.00 | 0.17 | 0.08 | 80 | 1007.4 |
| 20260905190008 | 58 | 346 | 0.9 | 6.1 | 0.00 | 0.17 | 0.08 | 81 | 1007.2 |
| 20260905184507 | 58 | 270 | 0.9 | 7.8 | 0.00 | 0.17 | 0.08 | 80 | 1006.9 |
| 20260905183005 | 58 | 9 | 0.9 | 7.8 | 0.00 | 0.17 | 0.08 | 80 | 1006.4 |
| 20260905181501 | 58 | 50 | 0.9 | 8.7 | 0.00 | 0.17 | 0.08 | 81 | 1006.0 |
| 20260905180104 | 59 | 274 | 1.7 | 7.0 | 0.00 | 0.17 | 0.08 | 80 | 1005.6 |
| 20260905174557 | 59 | 50 | 1.7 | 7.8 | 0.00 | 0.17 | 0.08 | 81 | 1005.3 |
| 20260905173103 | 59 | 214 | 0.9 | 7.8 | 0.00 | 0.17 | 0.08 | 79 | 1005.0 |
| 20260905171553 | 60 | 246 | 1.7 | 8.7 | 0.00 | 0.17 | 0.08 | 81 | 1004.8 |
| 20260905170052 | 60 | 327 | 2.6 | 14.8 | 0.00 | 0.17 | 0.08 | 82 | 1004.5 |
| 20260905164551 | 60 | 256 | 6.1 | 13.0 | 0.00 | 0.17 | 0.08 | 82 | 1004.4 |
| 20260905163050 | 61 | 204 | 3.5 | 13.9 | 0.00 | 0.17 | 0.08 | 82 | 1004.2 |
| 20260905161549 | 60 | 256 | 3.5 | 13.9 | 0.00 | 0.17 | 0.08 | 81 | 1004.1 |
| 20260905160047 | 60 | 296 | 6.1 | 13.9 | 0.00 | 0.17 | 0.08 | 83 | 1004.0 |
| 20260905154546 | 60 | 238 | 7.8 | 17.4 | 0.00 | 0.17 | 0.08 | 82 | 1003.9 |
| 20260905153045 | 60 | 221 | 8.7 | 15.6 | 0.01 | 0.17 | 0.08 | 82 | 1003.7 |
| 20260905151548 | 60 | 271 | 9.6 | 15.6 | 0.01 | 0.17 | 0.08 | 82 | 1003.4 |
| 20260905150044 | 60 | 242 | 7.8 | 17.4 | 0.01 | 0.17 | 0.08 | 82 | 1003.3 |
| 20260905144544 | 61 | 284 | 7.8 | 22.6 | 0.01 | 0.17 | 0.08 | 84 | 1003.2 |
| 20260905143048 | 60 | 231 | 10.4 | 20.0 | 0.00 | 0.17 | 0.07 | 81 | 1003.2 |
| 20260905141543 | 61 | 251 | 10.4 | 18.2 | 0.00 | 0.17 | 0.07 | 74 | 1003.3 |
| 20260905140045 | 60 | 223 | 7.8 | 22.6 | 0.00 | 0.17 | 0.07 | 77 | 1003.2 |
| 20260905134554 | 61 | 252 | 7.8 | 18.2 | 0.00 | 0.17 | 0.07 | 75 | 1003.0 |
| 20260905133044 | 62 | 240 | 9.6 | 20.9 | 0.00 | 0.17 | 0.07 | 74 | 1003.0 |
| 20260905131539 | 62 | 244 | 13.9 | 25.2 | 0.00 | 0.17 | 0.07 | 73 | 1002.9 |
| 20260905130038 | 63 | 235 | 8.7 | 23.5 | 0.00 | 0.17 | 0.07 | 72 | 1002.8 |
| 20260905124542 | 62 | 240 | 8.7 | 24.3 | 0.00 | 0.17 | 0.07 | 73 | 1002.6 |
| 20260905123037 | 63 | 213 | 10.4 | 20.0 | 0.00 | 0.17 | 0.07 | 71 | 1002.6 |
| 20260905121536 | 63 | 225 | 8.7 | 24.3 | 0.00 | 0.17 | 0.07 | 72 | 1002.5 |
| 20260905120035 | 63 | 265 | 13.0 | 25.2 | 0.00 | 0.17 | 0.07 | 71 | 1002.5 |
| 20260905114534 | 63 | 256 | 6.1 | 23.5 | 0.00 | 0.17 | 0.07 | 72 | 1002.4 |
| 20260905113033 | 64 | 246 | 13.0 | 19.1 | 0.00 | 0.17 | 0.07 | 71 | 1002.4 |
| 20260905111535 | 63 | 238 | 11.3 | 21.7 | 0.00 | 0.17 | 0.07 | 71 | 1002.3 |
| 20260905110029 | 63 | 241 | 12.2 | 20.0 | 0.00 | 0.17 | 0.07 | 71 | 1002.2 |
| 20260905104527 | 63 | 340 | 8.7 | 18.2 | 0.00 | 0.17 | 0.07 | 71 | 1002.1 |
| 20260905103025 | 63 | 267 | 9.6 | 20.9 | 0.00 | 0.17 | 0.07 | 73 | 1002.0 |
| 20260905101527 | 63 | 245 | 8.7 | 18.2 | 0.00 | 0.17 | 0.07 | 74 | 1001.8 |
| 20260905100021 | 61 | 219 | 8.7 | 20.0 | 0.00 | 0.17 | 0.07 | 74 | 1001.7 |
| 20260905094519 | 63 | 230 | 8.7 | 20.0 | 0.00 | 0.17 | 0.07 | 74 | 1001.6 |
| 20260905093016 | 61 | 246 | 7.8 | 21.7 | 0.00 | 0.17 | 0.07 | 75 | 1001.6 |
| 20260905091515 | 61 | 221 | 6.1 | 17.4 | 0.00 | 0.17 | 0.07 | 77 | 1001.5 |
| 20260905090015 | 61 | 240 | 10.4 | 17.4 | 0.00 | 0.17 | 0.07 | 75 | 1001.4 |
| 20260905084511 | 60 | 4 | 7.8 | 16.5 | 0.00 | 0.17 | 0.07 | 80 | 1001.3 |
| 20260905083018 | 59 | 4 | 7.8 | 16.5 | 0.00 | 0.17 | 0.07 | 80 | 1001.1 |
| 20260905081510 | 60 | 261 | 9.6 | 16.5 | 0.00 | 0.17 | 0.07 | 77 | 1000.9 |
| 20260905080006 | 59 | 256 | 5.2 | 17.4 | 0.00 | 0.17 | 0.07 | 80 | 1000.9 |
| 20260905074510 | 60 | 227 | 9.6 | 17.4 | 0.00 | 0.17 | 0.07 | 78 | 1000.7 |
| 20260905073003 | 59 | 232 | 4.3 | 14.8 | 0.00 | 0.17 | 0.07 | 80 | 1000.7 |
| 20260905071505 | 59 | 258 | 5.2 | 18.2 | 0.00 | 0.17 | 0.07 | 80 | 1000.6 |
| 20260905070112 | 59 | 223 | 5.2 | 15.6 | 0.00 | 0.17 | 0.07 | 80 | 1000.5 |
| 20260905064559 | 59 | 275 | 7.0 | 15.6 | 0.00 | 0.17 | 0.07 | 81 | 1000.3 |
| 20260905063058 | 58 | 239 | 10.4 | 21.7 | 0.00 | 0.17 | 0.07 | 82 | 1000.1 |
| 20260905061554 | 58 | 248 | 8.7 | 21.7 | 0.00 | 0.17 | 0.07 | 82 | 1000.0 |
| 20260905060051 | 58 | 4 | 7.0 | 16.5 | 0.00 | 0.17 | 0.07 | 83 | 999.9 |
| 20260905054554 | 57 | 4 | 6.1 | 17.4 | 0.00 | 0.17 | 0.07 | 84 | 999.7 |
| 20260905053048 | 57 | 277 | 5.2 | 16.5 | 0.00 | 0.17 | 0.07 | 84 | 999.6 |
| 20260905051546 | 57 | 273 | 7.0 | 14.8 | 0.00 | 0.17 | 0.07 | 85 | 999.3 |
| 20260905050045 | 57 | 281 | 7.0 | 16.5 | 0.00 | 0.17 | 0.07 | 85 | 999.2 |
| 20260905044542 | 57 | 220 | 7.0 | 16.5 | 0.00 | 0.17 | 0.07 | 86 | 999.3 |
| 20260905043041 | 57 | 258 | 6.1 | 12.2 | 0.00 | 0.17 | 0.07 | 86 | 999.2 |
| 20260905041540 | 57 | 236 | 4.3 | 13.0 | 0.00 | 0.17 | 0.07 | 87 | 999.1 |
| 20260905040048 | 57 | 4 | 6.1 | 17.4 | 0.00 | 0.17 | 0.07 | 88 | 998.9 |
| 20260905034536 | 57 | 274 | 4.3 | 13.0 | 0.00 | 0.17 | 0.07 | 87 | 998.8 |
| 20260905033036 | 57 | 221 | 6.1 | 14.8 | 0.00 | 0.17 | 0.07 | 87 | 998.8 |
| 20260905031535 | 57 | 63 | 5.2 | 10.4 | 0.00 | 0.17 | 0.07 | 88 | 998.7 |
| 20260905030035 | 57 | 240 | 7.0 | 16.5 | 0.00 | 0.17 | 0.07 | 88 | 998.6 |
| 20260905024530 | 56 | 238 | 5.2 | 13.0 | 0.00 | 0.17 | 0.07 | 89 | 998.5 |
| 20260905023028 | 56 | 240 | 7.8 | 15.6 | 0.00 | 0.17 | 0.07 | 90 | 998.4 |
| 20260905021526 | 56 | 254 | 4.3 | 14.8 | 0.00 | 0.17 | 0.07 | 91 | 998.2 |
| 20260905020026 | 55 | 254 | 5.2 | 16.5 | 0.05 | 0.17 | 0.07 | 91 | 998.1 |
| 20260905014521 | 55 | 288 | 5.2 | 17.4 | 0.05 | 0.17 | 0.07 | 92 | 998.0 |
| 20260905013019 | 55 | 244 | 5.2 | 14.8 | 0.06 | 0.17 | 0.07 | 93 | 997.8 |
| 20260905011516 | 56 | 268 | 5.2 | 12.2 | 0.06 | 0.17 | 0.07 | 93 | 997.6 |
| 20260905010019 | 55 | 236 | 4.3 | 10.4 | 0.02 | 0.12 | 0.02 | 93 | 997.6 |
| 20260905004513 | 56 | 215 | 7.0 | 13.0 | 0.02 | 0.12 | 0.02 | 93 | 997.6 |